Location: De Greiden
(52.9496°N, 5.9137°E)
Time: 02:05:25
(UTC+00:00)

CZ-4B R/B - Pass Details

Date: 24 January 2021
Orbit: 387 x 458 km, 97.6° (Epoch: 26 February)

Event Time Altitude Azimuth Distance (km) Brightness Sun altitude
Exits shadow 16:46:13 - 36° (NE) 2,006 4.2 -6.2°
Reaches altitude 10° 16:47:35 10° 50° (NE) 1,573 3.5 -6.3°
Maximum altitude 16:49:48 16° 91° (E) 1,225 3.1 -6.7°
Drops below altitude 10° 16:51:57 10° 132° (SE) 1,538 3.9 -7.0°
Sets 16:54:29 0° 155° (SSE) 2,381 5.0 -7.3°
